Flag for U.S.A. Weather past 2 weeks in Burbank, California, U.S.A.

Now
55 °F

Sunny.


Feels Like: 55 °F
Forecast: 48 / 65 °F
Wind: No wind

Location: Burbank-Glendale-Pasadena Airport

Current Time: Dec 20, 2014 at 11:08:28 AM

Latest Report: Dec 20, 2014 at 9:53 AM


Visibility: 10 mi

Pressure: 30.17 "Hg

Humidity: 69%

Dew point: 45 °F

Location of BurbankLocation

Historic Weather in Burbank — Graph

°F

Burbank temperature yesterday

Maximum temperature yesterday: 63 °F (at 12:53 PM)
Minimum temperature yesterday: 46 °F (at 6:53 AM)
Average temperature yesterday: 54 °F

Past Weeks' High & Low Weather Summary

 TemperatureHumidityPressure
High78 °F (Dec 8, 1:53 PM)94% (Dec 12, 1:56 AM)30.21 "Hg (Dec 12, 1:56 AM)
Low42 °F (Dec 14, 6:53 AM)28% (Dec 8, 1:53 PM)29.75 "Hg (Dec 12, 2:53 AM)
Average57 °F68%30.04 "Hg
* Reported Dec 5 9:53 AM — Dec 20 9:53 AM, Burbank, Weather by CustomWeather, © 2014

Note: Actual official high and low records may vary slightly from our data, if they occured in-between our weather recording intervals... More about our weather records

Advertising

Burbank weather history for previous 24 hours

 ConditionsComfort  
Time TempWeatherWind HumidityBarometerVisibility
9:53 AM
Dec 20
55 °FSunny.No wind69%30.17 "Hg10 mi
8:53 AM52 °FSunny.No wind77%30.16 "Hg10 mi
7:53 AM48 °FSunny.No wind83%30.15 "Hg10 mi
6:53 AM48 °FClear.No wind80%30.14 "Hg10 mi
5:53 AM48 °FClear.3 mph83%30.13 "Hg10 mi
4:53 AM47 °FClear.No wind86%30.11 "Hg10 mi
3:53 AM48 °FClear.No wind80%30.11 "Hg10 mi
2:53 AM49 °FClear.3 mph80%30.13 "Hg10 mi
1:53 AM49 °FClear.No wind84%30.13 "Hg10 mi
12:53 AM51 °FClear.3 mph77%30.14 "Hg10 mi
11:53 PM
Dec 19
51 °FClear.6 mph80%30.15 "Hg10 mi
10:53 PM52 °FClear.3 mph80%30.14 "Hg10 mi
9:53 PM53 °FClear.6 mph80%30.16 "Hg10 mi
8:53 PM55 °FClear.No wind74%30.15 "Hg10 mi
7:53 PM57 °FClear.No wind69%30.14 "Hg10 mi
6:53 PM57 °FClear.No wind78%30.16 "Hg10 mi
5:53 PM59 °FClear.No wind72%30.14 "Hg10 mi
4:53 PM60 °FClear.3 mph69%30.12 "Hg10 mi
3:53 PM62 °FSunny.5 mph60%30.11 "Hg10 mi
2:53 PM63 °FSunny.5 mph52%30.11 "Hg10 mi
1:53 PM63 °FSunny.3 mph50%30.13 "Hg10 mi
12:53 PM63 °FSunny.6 mph48%30.16 "Hg10 mi
11:53 AM62 °FSunny.3 mph52%30.19 "Hg10 mi
Weather by CustomWeather, © 2014

See weather overviewHow to use our weather pages